When you browse on this site, cookies collect data to enhance your experience and personalize the content and advertising you see.
Visit our Privacy Policy to learn more. By continuing to use the site, you agree to this use of cookies and data.
  • In Latvia
  • List of Countries
  • For 7 days
  • Water Temperature
  • Weather Map
  • Weather Widgets
  • user-avatar
    Login

    Hourly Weather Cham

    Today, 14 November, Thursday

    Time Temperature Precipitation Wind Pressure Humidity
    00:00 +1°C° 0 mm 1 mps 716 mmHg 77%
    01:00 +1°C° 0 mm 1 mps 716 mmHg 75%
    02:00 +1°C° 0 mm 1 mps 716 mmHg 74%
    03:00 +1°C° 0 mm 1 mps 715 mmHg 73%
    04:00 +1°C° 0 mm 1 mps 715 mmHg 72%
    05:00 +1°C° 0 mm 1 mps 715 mmHg 72%
    06:00 -1°C° 0 mm 2 mps 715 mmHg 72%
    07:00 -1°C° 0 mm 2 mps 715 mmHg 72%
    08:00 +2°C° 0 mm 2 mps 715 mmHg 69%
    09:00 +3°C° 0 mm 2 mps 716 mmHg 65%
    10:00 +6°C° 0 mm 1 mps 716 mmHg 62%
    11:00 +6°C° 0 mm 1 mps 715 mmHg 60%
    12:00 +7°C° 0 mm 1 mps 715 mmHg 59%
    13:00 +8°C° 0 mm 1 mps 714 mmHg 57%
    14:00 +7°C° 0 mm 1 mps 714 mmHg 62%
    15:00 +7°C° 0 mm 1 mps 713 mmHg 66%
    16:00 +6°C° 0 mm 1 mps 713 mmHg 71%
    17:00 +5°C° 0 mm 1 mps 713 mmHg 73%
    18:00 +4°C° 0 mm 1 mps 713 mmHg 76%
    19:00 +3°C° 0 mm 1 mps 713 mmHg 79%
    20:00 +3°C° 0 mm 1 mps 712 mmHg 79%
    21:00 +3°C° 0 mm 1 mps 712 mmHg 80%
    22:00 +2°C° 0 mm 2 mps 712 mmHg 80%
    23:00 +2°C° 0.1 mm 1 mps 711 mmHg 83%

    Tomorrow, 15 November, Friday

    Time Temperature Precipitation Wind Pressure Humidity
    00:00 +2°C° 0.1 mm 1 mps 711 mmHg 85%
    01:00 +2°C° 0.1 mm 1 mps 710 mmHg 88%
    02:00 +2°C° 0.3 mm 1 mps 709 mmHg 89%
    03:00 +2°C° 0.3 mm 1 mps 709 mmHg 91%
    04:00 +2°C° 0.3 mm 1 mps 708 mmHg 93%
    05:00 +2°C° 0.6 mm 1 mps 708 mmHg 94%
    06:00 +2°C° 0.6 mm 1 mps 708 mmHg 95%
    07:00 +2°C° 0.6 mm 1 mps 708 mmHg 96%
    08:00 +3°C° 0.9 mm 1 mps 709 mmHg 94%
    09:00 +5°C° 0.9 mm 1 mps 710 mmHg 93%
    10:00 +5°C° 0.9 mm 2 mps 711 mmHg 92%
    11:00 +7°C° 0 mm 1 mps 712 mmHg 89%
    12:00 +7°C° 0 mm 1 mps 712 mmHg 86%
    13:00 +8°C° 0 mm 1 mps 712 mmHg 83%
    14:00 +7°C° 0.1 mm 1 mps 712 mmHg 86%
    15:00 +7°C° 0.1 mm 1 mps 713 mmHg 89%
    16:00 +6°C° 0.1 mm 1 mps 713 mmHg 92%
    17:00 +5°C° 0.1 mm 1 mps 713 mmHg 93%
    18:00 +5°C° 0.1 mm 1 mps 714 mmHg 94%
    19:00 +4°C° 0.1 mm 1 mps 715 mmHg 95%
    20:00 +4°C° 0 mm 1 mps 715 mmHg 94%
    21:00 +3°C° 0 mm 1 mps 715 mmHg 93%
    22:00 +2°C° 0 mm 1 mps 715 mmHg 92%
    23:00 +2°C° 0 mm 1 mps 715 mmHg 91%

    Day after tomorrow, 16 November, Saturday

    Time Temperature Precipitation Wind Pressure Humidity
    00:00 +2°C° 0 mm 1 mps 716 mmHg 91%
    01:00 +2°C° 0 mm 1 mps 716 mmHg 91%
    02:00 +2°C° 0 mm 1 mps 716 mmHg 91%
    03:00 +3°C° 0 mm 1 mps 716 mmHg 91%
    04:00 +3°C° 0 mm 1 mps 716 mmHg 90%
    05:00 +3°C° 0 mm 1 mps 717 mmHg 90%
    06:00 +3°C° 0 mm 1 mps 718 mmHg 90%
    07:00 +2°C° 0 mm 1 mps 718 mmHg 90%
    08:00 +4°C° 0 mm 1 mps 719 mmHg 87%
    09:00 +5°C° 0 mm 1 mps 720 mmHg 85%
    10:00 +5°C° 0 mm 0 mps 720 mmHg 82%
    11:00 +6°C° 0 mm 0 mps 721 mmHg 80%
    12:00 +8°C° 0 mm 1 mps 721 mmHg 78%
    13:00 +9°C° 0 mm 1 mps 721 mmHg 77%
    14:00 +8°C° 0 mm 1 mps 721 mmHg 80%
    15:00 +7°C° 0 mm 1 mps 721 mmHg 84%
    16:00 +6°C° 0 mm 1 mps 721 mmHg 88%
    17:00 +5°C° 0 mm 1 mps 721 mmHg 89%
    18:00 +4°C° 0 mm 1 mps 721 mmHg 90%
    19:00 +3°C° 0 mm 1 mps 721 mmHg 91%
    20:00 +3°C° 0 mm 1 mps 721 mmHg 91%
    21:00 +3°C° 0 mm 1 mps 721 mmHg 91%
    22:00 +3°C° 0 mm 1 mps 721 mmHg 91%
    23:00 +3°C° 0 mm 1 mps 720 mmHg 91%

    17 November, Sunday

    Time Temperature Precipitation Wind Pressure Humidity
    00:00 +2°C° 0 mm 0 mps 719 mmHg 92%
    01:00 +2°C° 0 mm 0 mps 719 mmHg 93%
    02:00 +2°C° 0.2 mm 0 mps 718 mmHg 94%
    03:00 +2°C° 0.2 mm 0 mps 717 mmHg 95%
    04:00 +3°C° 0.2 mm 0 mps 717 mmHg 96%
    05:00 +3°C° 0.6 mm 0 mps 716 mmHg 96%
    06:00 +3°C° 0.6 mm 0 mps 715 mmHg 97%
    07:00 +3°C° 0.6 mm 0 mps 715 mmHg 97%
    08:00 +4°C° 0.4 mm 1 mps 714 mmHg 96%
    09:00 +4°C° 0.4 mm 1 mps 713 mmHg 95%
    10:00 +5°C° 0.4 mm 1 mps 713 mmHg 94%
    11:00 +5°C° 0.7 mm 1 mps 712 mmHg 94%
    12:00 +5°C° 0.7 mm 1 mps 712 mmHg 94%
    13:00 +6°C° 0.7 mm 1 mps 712 mmHg 95%
    14:00 +6°C° 0.1 mm 1 mps 711 mmHg 95%
    15:00 +6°C° 0.1 mm 1 mps 711 mmHg 94%
    16:00 +6°C° 0.1 mm 1 mps 711 mmHg 94%
    17:00 +5°C° 0 mm 1 mps 712 mmHg 95%
    18:00 +5°C° 0 mm 1 mps 712 mmHg 95%
    19:00 +5°C° 0 mm 1 mps 713 mmHg 95%
    20:00 +5°C° 0 mm 1 mps 713 mmHg 95%
    21:00 +5°C° 0 mm 1 mps 714 mmHg 95%
    22:00 +5°C° 0 mm 1 mps 714 mmHg 95%
    23:00 +5°C° 0 mm 1 mps 714 mmHg 95%

    18 November, Monday

    Time Temperature Precipitation Wind Pressure Humidity
    00:00 +4°C° 0 mm 1 mps 715 mmHg 95%
    01:00 +4°C° 0 mm 1 mps 715 mmHg 96%
    02:00 +4°C° 0 mm 1 mps 715 mmHg 95%
    03:00 +3°C° 0 mm 1 mps 715 mmHg 95%
    04:00 +2°C° 0 mm 2 mps 716 mmHg 94%
    05:00 +3°C° 0.1 mm 1 mps 716 mmHg 94%
    06:00 +3°C° 0.1 mm 1 mps 717 mmHg 94%
    07:00 +3°C° 0.1 mm 1 mps 717 mmHg 94%
    08:00 +3°C° 0 mm 1 mps 717 mmHg 92%
    09:00 +4°C° 0 mm 1 mps 718 mmHg 90%
    10:00 +4°C° 0 mm 2 mps 718 mmHg 87%
    11:00 +4°C° 0.1 mm 2 mps 718 mmHg 86%
    12:00 +5°C° 0.1 mm 2 mps 718 mmHg 84%
    13:00 +5°C° 0.1 mm 2 mps 718 mmHg 82%
    14:00 +5°C° 0.1 mm 2 mps 718 mmHg 84%
    15:00 +5°C° 0.1 mm 1 mps 719 mmHg 86%
    16:00 +5°C° 0.1 mm 1 mps 719 mmHg 88%
    17:00 +4°C° 0 mm 1 mps 720 mmHg 89%
    18:00 +4°C° 0 mm 1 mps 720 mmHg 90%
    19:00 +2°C° 0 mm 0 mps 721 mmHg 91%
    20:00 +3°C° 0 mm 1 mps 721 mmHg 91%
    21:00 +3°C° 0 mm 1 mps 721 mmHg 91%
    22:00 +2°C° 0 mm 1 mps 721 mmHg 91%
    23:00 +2°C° 0 mm 1 mps 722 mmHg 91%

    19 November, Tuesday

    Time Temperature Precipitation Wind Pressure Humidity
    00:00 +2°C° 0 mm 1 mps 722 mmHg 92%
    01:00 +2°C° 0 mm 1 mps 722 mmHg 92%
    02:00 +2°C° 0 mm 1 mps 722 mmHg 93%
    03:00 +2°C° 0 mm 1 mps 723 mmHg 94%
    04:00 +2°C° 0 mm 1 mps 723 mmHg 95%
    05:00 +2°C° 0.1 mm 1 mps 723 mmHg 95%
    06:00 +2°C° 0.1 mm 1 mps 723 mmHg 95%
    07:00 +1°C° 0.1 mm 1 mps 724 mmHg 95%
    08:00 +2°C° 0 mm 0 mps 724 mmHg 91%
    09:00 +3°C° 0 mm 0 mps 724 mmHg 87%
    10:00 +4°C° 0 mm 0 mps 724 mmHg 83%
    11:00 +5°C° 0 mm 0 mps 724 mmHg 81%
    12:00 +6°C° 0 mm 0 mps 723 mmHg 78%
    13:00 +7°C° 0 mm 1 mps 723 mmHg 75%
    14:00 +6°C° 0 mm 0 mps 723 mmHg 78%
    15:00 +5°C° 0 mm 0 mps 723 mmHg 80%
    16:00 +5°C° 0 mm 0 mps 723 mmHg 83%
    17:00 +3°C° 0 mm 0 mps 723 mmHg 85%
    18:00 +3°C° 0 mm 1 mps 724 mmHg 86%
    19:00 +2°C° 0 mm 1 mps 724 mmHg 88%
    20:00 +2°C° 0 mm 1 mps 724 mmHg 87%
    21:00 +2°C° 0 mm 1 mps 724 mmHg 86%
    22:00 +2°C° 0 mm 1 mps 724 mmHg 84%
    23:00 +1°C° 0 mm 1 mps 724 mmHg 84%
    Show more